This is the latest recevied weather packets stored in our database for station/object N8XHB. If no packets are shown the sender has not sent any weather packets the latest 1 day(s).
| Time | Temp. | Humidity | Pressure | Rain* | Wind** | Luminosity | Snow |
|---|---|---|---|---|---|---|---|
| 1778041483 | 7.22° C | 56% | 1010.1 hPa | 0 mm | 0 m/s | 0 W/m² | - |
| 1778041180 | 7.22° C | 55% | 1009.8 hPa | 0 mm | 0.45 m/s, 14° | 0 W/m² | - |
| 1778040878 | 7.22° C | 56% | 1009.9 hPa | 0 mm | 0.45 m/s, 14° | 0 W/m² | - |
| 1778040575 | 7.22° C | 56% | 1010.3 hPa | 0 mm | 0.45 m/s, 15° | 0 W/m² | - |
| 1778040272 | 7.22° C | 56% | 1009.9 hPa | 0 mm | 0 m/s | 0 W/m² | - |
| 1778039968 | 6.67° C | 57% | 1010 hPa | 0 mm | 0.45 m/s, 17° | 0 W/m² | - |
| 1778039666 | 6.67° C | 60% | 1010.1 hPa | 0 mm | 0 m/s | 0 W/m² | - |
| 1778039362 | 6.67° C | 61% | 1010.1 hPa | 0 mm | 0 m/s | 0 W/m² | - |
| 1778039060 | 6.67° C | 60% | 1009.8 hPa | 0 mm | 0 m/s | 0 W/m² | - |
| 1778038757 | 6.67° C | 60% | 1010 hPa | 0 mm | 0 m/s | 0 W/m² | - |
| 1778038454 | 6.67° C | 62% | 1009.7 hPa | 0 mm | 0 m/s | 0 W/m² | - |
| 1778038151 | 6.67° C | 62% | 1009.6 hPa | 0 mm | 0 m/s | 0 W/m² | - |
| 1778037848 | 6.67° C | 62% | 1009.9 hPa | 0 mm | 0 m/s | 0 W/m² | - |
| 1778037544 | 6.67° C | 60% | 1010 hPa | 0 mm | 0 m/s | 0 W/m² | - |
| 1778037242 | 6.67° C | 59% | 1010 hPa | 0 mm | 0 m/s | 0 W/m² | - |
| 1778036939 | 6.67° C | 58% | 1009.9 hPa | 0 mm | 0 m/s | 0 W/m² | - |
| 1778036637 | 6.67° C | 58% | 1010.1 hPa | 0 mm | 0 m/s | 0 W/m² | - |
| 1778036334 | 6.67° C | 57% | 1010 hPa | 0 mm | 0 m/s | 0 W/m² | - |
| 1778036030 | 6.67° C | 57% | 1010 hPa | 0 mm | 0 m/s | 0 W/m² | - |
| 1778035727 | 6.67° C | 59% | 1009.8 hPa | 0 mm | 0 m/s | 0 W/m² | - |
| 1778035424 | 7.22° C | 56% | 1009.6 hPa | 0 mm | 0 m/s | 0 W/m² | - |
| 1778035120 | 7.22° C | 54% | 1009.6 hPa | 0 mm | 0 m/s | 0 W/m² | - |
| 1778034817 | 7.22° C | 54% | 1009.9 hPa | 0 mm | 0 m/s | 0 W/m² | - |
| 1778034514 | 7.22° C | 54% | 1009.7 hPa | 0 mm | 0 m/s | 0 W/m² | - |
| 1778034212 | 7.22° C | 53% | 1009.7 hPa | 0 mm | 0 m/s | 0 W/m² | - |
* Rain latest hour (hover to see other rain measurements)
** Current wind speed in m/s (hover to see current wind gust speed)